Flag for Poland Weather past 2 weeks in Bielsko-Biała, Poland

Now
53 °F

Partly sunny.


Feels Like: 53 °F
Forecast: 35 / 63 °F
Wind: 3 mph from East

Location: Katowice


UV Index: 3 (Moderate)

Visibility: 13 mi


Pressure: 30.16 "Hg

Humidity: 46%

Dew point: 33 °F

Location of Bielsko-BiałaLocation

Historic Weather in Bielsko-Biała

°F

Bielsko-Biała temperature yesterday

Maximum temperature yesterday: 42 °F (at 6:00 PM)
Minimum temperature yesterday: 37 °F (at 11:00 PM)
Average temperature yesterday: 40 °F

Past Weeks' High & Low Weather Summary

 TemperatureHumidityPressure
High70 °F (Apr 8, 4:00 PM)100% (Apr 13, 8:00 AM)30.38 "Hg (Apr 13, 8:00 AM)
Low30 °F (Apr 13, 6:00 AM)30% (Apr 3, 3:00 PM)29.66 "Hg (Apr 3, 5:00 PM)
Average47 °F71%30.01 "Hg
* Reported Apr 2 3:00 PM — Apr 17 3:00 PM, Bielsko-Biała, Weather by CustomWeather, © 2014

Note: Actual official high and low records may vary slightly from our data, if they occured in-between our weather recording intervals... More about our weather records

Advertising

Historic Weather Conditions — Data for Previous 24 hours

 ConditionsComfort  
Time TempWeatherWind HumidityBarometerVisibility
3:00 PM
Apr 17
53 °FScattered clouds.5 mph43%30.18 "Hg12 mi
2:00 PM52 °FPartly sunny.5 mph48%30.21 "Hg12 mi
1:00 PM52 °FPartly sunny.5 mph48%30.24 "Hg12 mi
12:00 PM51 °FPartly sunny.6 mph54%30.27 "Hg12 mi
11:00 AM49 °FPartly sunny.3 mph57%30.29 "Hg12 mi
10:00 AM47 °FPassing clouds.3 mph57%30.30 "Hg12 mi
9:00 AM41 °FOvercast.1 mph76%30.33 "Hg6 mi
8:00 AM37 °FFog.1 mph85%30.36 "Hg2 mi
7:00 AM36 °FScattered clouds.1 mph88%30.36 "Hg6 mi
6:00 AM36 °FPartly sunny.1 mph88%30.35 "Hg6 mi
5:00 AM36 °FOvercast.1 mph89%30.35 "Hg6 mi
4:00 AM35 °FOvercast.1 mph94%30.36 "Hg6 mi
3:00 AM34 °FFog.1 mph95%30.37 "Hg6 mi
2:00 AM35 °FFog.1 mph94%30.38 "Hg6 mi
1:00 AM35 °FPassing clouds.1 mph93%30.38 "Hg6 mi
12:00 AM36 °FPassing clouds.1 mph92%30.38 "Hg6 mi
11:00 PM
Apr 16
37 °FPassing clouds.1 mph90%30.37 "Hg6 mi
10:00 PM38 °FPassing clouds.1 mph86%30.37 "Hg6 mi
9:00 PM40 °FPassing clouds.2 mph82%30.36 "Hg6 mi
8:00 PM41 °FPassing clouds.1 mph78%30.36 "Hg6 mi
7:00 PM42 °FPartly sunny.1 mph77%30.35 "Hg6 mi
6:00 PM42 °FOvercast.2 mph74%30.35 "Hg6 mi
5:00 PM41 °FOvercast.2 mph78%30.35 "Hg6 mi
4:00 PM40 °FOvercast.2 mph79%30.35 "Hg9 mi
Weather by CustomWeather, © 2014

See weather overview